Date String (YYYY-MM-DD hh:mm:ss) UTC,Instrument flags,Ambient pressure (hPa),Sample flow (lpm),Bypass flow (lpm),Sample temperature (°C),Ambient temperature (°C),ASC tube jacket temperature (°C),LED temperature (°C),Box temperature (°C),Sample RH (%),Span deviation,Mass concentration (μg/m³),Mass concentration (μg/m³),Mass concentration (μg/m³)
DateTimeUTC,F1_M11,P_M11,Q1_M11,Q2_M11,T1_M11,T2_M11,T3_M11,T4_M11,T5_M11,U1_M11,ZSPAN_M11,X0_M11,X2_M11,X1_M11
2022-03-10 11:00:00,,0822.7,4.99,0.00,22.3,21.4,00.0,31.3,24.0,05.1,0000.0,0007.02,0004.25,0003.96
2022-03-10 11:01:00,,0822.7,5.00,0.00,22.3,21.3,00.0,31.3,23.9,05.1,0000.0,0007.00,0004.25,0003.96
2022-03-10 11:02:00,,0822.7,5.00,0.00,22.2,21.2,00.0,31.3,23.8,05.1,0000.0,0006.87,0004.25,0003.98
2022-03-10 11:03:00,,0822.7,5.00,0.00,22.3,21.8,00.0,31.3,23.9,05.1,0000.0,0006.85,0004.25,0003.99
2022-03-10 11:04:00,,0822.8,5.01,0.00,22.4,22.5,00.0,31.4,24.2,05.1,0000.0,0006.78,0004.25,0004.00
2022-03-10 11:05:00,,0822.9,4.99,0.00,22.5,23.0,00.0,31.4,24.4,05.1,0000.0,0006.96,0004.25,0004.01
2022-03-10 11:06:00,,0823.0,4.99,0.00,22.5,22.7,00.0,31.4,24.4,05.0,0000.0,0007.23,0004.27,0004.03
2022-03-10 11:07:00,,0822.9,5.00,0.00,22.5,22.3,00.0,31.4,24.3,05.0,0000.0,0007.88,0004.30,0004.03
2022-03-10 11:08:00,,0822.9,5.00,0.00,22.5,22.1,00.0,31.4,24.2,05.0,0000.0,0008.07,0004.33,0004.05
2022-03-10 11:09:00,,0822.9,5.00,0.00,22.4,21.8,00.0,31.4,24.1,05.0,0000.0,0008.05,0004.32,0004.06
2022-03-10 11:10:00,,0822.8,4.99,0.00,22.4,21.6,00.0,31.4,24.0,05.1,0000.0,0007.59,0004.32,0004.06
2022-03-10 11:11:00,,0822.8,5.02,0.00,22.3,21.4,00.0,31.3,24.0,05.1,0000.0,0007.53,0004.34,0004.07
2022-03-10 11:12:00,,0822.9,4.99,0.00,22.3,21.2,00.0,31.3,23.9,05.1,0000.0,0007.50,0004.34,0004.08
2022-03-10 11:13:00,,0822.8,5.00,0.00,22.2,21.0,00.0,31.3,23.8,05.1,0000.0,0007.49,0004.32,0004.07
2022-03-10 11:14:00,,0822.9,4.99,0.00,22.2,21.5,00.0,31.3,23.9,05.1,0000.0,0007.53,0004.33,0004.07
2022-03-10 11:15:00,,0822.9,5.01,0.00,22.3,22.3,00.0,31.3,24.1,05.1,0000.0,0007.54,0004.32,0004.06
2022-03-10 11:16:00,,0822.9,4.99,0.00,22.5,22.9,00.0,31.4,24.3,05.0,0000.0,0007.45,0004.33,0004.05
2022-03-10 11:17:00,,0823.0,5.01,0.00,22.5,22.8,00.0,31.4,24.4,05.0,0000.0,0007.32,0004.32,0004.04
2022-03-10 11:18:00,,0822.9,5.01,0.00,22.5,22.5,00.0,31.4,24.3,05.0,0000.0,0006.29,0004.30,0004.03
2022-03-10 11:19:00,,0823.0,5.00,0.00,22.5,22.2,00.0,31.4,24.3,05.0,0000.0,0006.12,0004.29,0004.01
2022-03-10 11:20:00,,0823.0,5.00,0.00,22.4,21.9,00.0,31.4,24.2,05.0,0000.0,0006.10,0004.27,0003.99
2022-03-10 11:21:00,,0823.0,5.00,0.00,22.4,21.7,00.0,31.4,24.1,05.1,0000.0,0006.05,0004.25,0003.97
2022-03-10 11:22:00,,0823.0,4.99,0.00,22.4,21.5,00.0,31.3,24.0,05.1,0000.0,0005.86,0004.20,0003.95
2022-03-10 11:23:00,,0823.1,5.01,0.00,22.3,21.3,00.0,31.3,23.9,05.1,0000.0,0005.94,0004.21,0003.93
2022-03-10 11:24:00,,0823.1,5.00,0.00,22.2,21.2,00.0,31.3,23.9,05.1,0000.0,0005.89,0004.21,0003.94
2022-03-10 11:25:00,,0823.1,5.00,0.00,22.2,21.5,00.0,31.3,23.9,05.1,0000.0,0005.80,0004.19,0003.93
2022-03-10 11:26:00,,0823.0,5.01,0.00,22.3,22.3,00.0,31.3,24.1,05.1,0000.0,0005.78,0004.19,0003.93
2022-03-10 11:27:00,,0823.0,5.00,0.00,22.5,23.0,00.0,31.4,24.3,05.1,0000.0,0005.65,0004.17,0003.93
2022-03-10 11:28:00,,0822.9,4.99,0.00,22.6,22.9,00.0,31.4,24.4,05.0,0000.0,0005.54,0004.15,0003.92
2022-03-10 11:29:00,,0823.0,5.01,0.00,22.5,22.5,00.0,31.4,24.4,05.0,0000.0,0005.49,0004.15,0003.92
2022-03-10 11:30:00,,0823.1,5.00,0.00,22.5,22.1,00.0,31.4,24.2,05.1,0000.0,0005.41,0004.14,0003.93
2022-03-10 11:31:00,,0823.0,5.00,0.00,22.4,21.7,00.0,31.4,24.1,05.1,0000.0,0005.33,0004.13,0003.94
2022-03-10 11:32:00,,0822.9,5.01,0.00,22.3,21.3,00.0,31.3,24.0,05.1,0000.0,0005.35,0004.14,0003.94
2022-03-10 11:33:00,,0822.9,4.99,0.00,22.3,21.1,00.0,31.3,23.8,05.1,0000.0,0005.34,0004.14,0003.95
2022-03-10 11:34:00,,0822.9,5.01,0.00,22.2,20.8,00.0,31.3,23.7,05.1,0000.0,0005.27,0004.14,0003.95
2022-03-10 11:35:00,,0822.9,4.99,0.00,22.1,21.0,00.0,31.3,23.7,05.1,0000.0,0005.27,0004.14,0003.96
2022-03-10 11:36:00,,0823.0,5.00,0.00,22.2,21.9,00.0,31.3,23.9,05.1,0000.0,0006.09,0004.17,0003.96
2022-03-10 11:37:00,,0823.0,5.01,0.00,22.3,22.8,00.0,31.3,24.2,05.1,0000.0,0007.22,0004.17,0003.96
2022-03-10 11:38:00,,0823.0,5.00,0.00,22.5,23.2,00.0,31.4,24.4,05.1,0000.0,0008.14,0004.18,0003.96
2022-03-10 11:39:00,,0822.9,4.99,0.00,22.5,22.8,00.0,31.4,24.4,05.1,0000.0,0008.14,0004.16,0003.96
2022-03-10 11:40:00,,0823.1,5.00,0.00,22.5,22.3,00.0,31.4,24.3,05.1,0000.0,0008.20,0004.18,0003.96
2022-03-10 11:41:00,,0823.0,5.00,0.00,22.4,21.9,00.0,31.4,24.1,05.1,0000.0,0008.19,0004.17,0003.95
2022-03-10 11:42:00,,0823.0,5.00,0.00,22.4,21.6,00.0,31.3,24.0,05.1,0000.0,0008.19,0004.17,0003.95
2022-03-10 11:43:00,,0822.9,5.02,0.00,22.3,21.3,00.0,31.3,23.9,05.1,0000.0,0008.13,0004.15,0003.95
2022-03-10 11:44:00,,0822.9,4.99,0.00,22.2,21.0,00.0,31.3,23.8,05.1,0000.0,0008.10,0004.14,0003.94
2022-03-10 11:45:00,,0823.1,4.99,0.00,22.1,20.8,00.0,31.3,23.7,05.1,0000.0,0008.08,0004.12,0003.92
2022-03-10 11:46:00,,0823.2,5.01,0.00,22.1,20.8,00.0,31.2,23.7,05.1,0000.0,0008.09,0004.11,0003.91
2022-03-10 11:47:00,,0823.3,4.99,0.00,22.1,21.2,00.0,31.2,23.7,05.1,0000.0,0007.78,0004.10,0003.91
2022-03-10 11:48:00,,0823.2,5.00,0.00,22.2,22.1,00.0,31.3,23.9,05.1,0000.0,0007.07,0004.09,0003.92
2022-03-10 11:49:00,,0823.2,4.99,0.00,22.3,22.7,00.0,31.3,24.2,05.1,0000.0,0005.31,0004.09,0003.92
2022-03-10 11:50:00,,0823.2,5.01,0.00,22.4,22.6,00.0,31.3,24.2,05.1,0000.0,0005.49,0004.13,0003.93
2022-03-10 11:51:00,,0823.2,5.00,0.00,22.4,22.3,00.0,31.3,24.2,05.1,0000.0,0005.52,0004.13,0003.95
2022-03-10 11:52:00,,0823.1,5.01,0.00,22.3,22.0,00.0,31.3,24.1,05.1,0000.0,0005.43,0004.13,0003.95
2022-03-10 11:53:00,,0823.2,5.01,0.00,22.3,21.7,00.0,31.3,24.0,05.1,0000.0,0005.46,0004.14,0003.95
2022-03-10 11:54:00,,0823.2,5.00,0.00,22.3,21.5,00.0,31.3,24.0,05.1,0000.0,0005.51,0004.14,0003.96
2022-03-10 11:55:00,,0823.3,4.99,0.00,22.2,21.3,00.0,31.2,23.9,05.1,0000.0,0005.51,0004.15,0003.97
2022-03-10 11:56:00,,0823.2,5.02,0.00,22.2,21.2,00.0,31.2,23.8,05.1,0000.0,0005.54,0004.17,0003.99
2022-03-10 11:57:00,,0823.2,5.00,0.00,22.1,21.1,00.0,31.2,23.8,05.1,0000.0,0005.55,0004.17,0004.00
2022-03-10 11:58:00,,0823.3,4.99,0.00,22.1,21.4,00.0,31.2,23.8,05.1,0000.0,0005.54,0004.18,0004.00
2022-03-10 11:59:00,,0823.2,5.01,0.00,22.2,22.2,00.0,31.2,24.0,05.1,0000.0,0005.46,0004.19,0004.00
